Showing default

SKYKRAFT-1C, 55061

Orbit data source: Space-Track

SKYKRAFT-1C, 55061 is a payload satellite owned by SkyKraft (AU) in SSO that was launched on Tue, 03 Jan 2023 UTC via an FALCON 9 launch vehicle from the Air Force Eastern Test Range (AFETR). Payload-class satellites include a variety of spacecraft equipped with specific instruments for various scientific and technological missions. These include communications satellites like Starlink; space stations such as the ISS; scientific satellites like the Hubble; Earth observation satellites from companies like Planet Labs, Umbra, and HawkEye 360; GPS; miniature CubeSats for education and research; and military/defense satellites.

Loading next visibility...
Identifier
55061, 2023-001BE
Orbit
SSO
Country
Flag of AUAU / AUS
Related business
Manufacturer
SkyKraft
Mission
Operational Commercial Communications
Bus & Motor
SKYKRAFT, Unknown motor
Mass
~50 kg wet, ~50 kg dry
Launch date (UTC)
2023-01-03 (3 years ago)
Launch vehicle
FALCON 9
Launch site
Air Force Eastern Test Range (AFETR)
Object type
Payload
Rocket body
Debris
Shape & HBR
Box, 0.3 m
Radar Cross Section
0.065 m², Medium (>0.1 m² and < 1m²)

Expand to show TLE details & history
Last TLE update: 15 hours ago

TLE from 15 hours ago
0 SKYKRAFT-1C
1 55061U 23001BE  25340.59939592  .00006050  00000-0  25615-3 0  9991
2 55061  97.3495  33.3867 0012463 103.6547 256.6079 15.23469771162142
Epoch: 2025-12-06T14:23Z
TLE epoch observation values (Epoch: 2025-12-06T14:23:07.807Z)
Latitude
-0°
Longitude
101.97935°
Altitude
500.476 km
Speed
7.613 km/s
True Right ascension
02h 13m 32s
True Declination
0° 00' 00"
Sunlit
Object was in full shadow at epoch
Visualization orbit readout
Latitude
Unknown
Longitude
Unknown
Altitude
Unknown
Speed
Unknown
Apparent Right ascension
Unknown
Apparent Declination
Unknown
Sunlit
N/A
Visualization observer readout
Local Sidereal Time
03:46:00
Azimuth
Unknown
Elevation
Unknown
Doppler factor
Unknown
Orbital elements
Apogee altitude
500.906 km
Perigee altitude
483.78 km
Semi-major axis
6,870.48 km
Eccentricity
0.00125
Inclination
97.3495°
RAAN
33.3867°
Arg. of periapsis
103.6547°
True anomaly
256.46902°
Mean anomaly
256.6079°
Eccentric anomaly
256.53845°
Mean motion
3.81121 °/min
Orbital period
94.46 mins
BSTAR
0.00025615
Loading maneuver chart data...
Computing Atmospheric mass density...

Documentation

Showing up to 5 results
|